• In Russia
  • List of Countries
  • For 7 days
  • Water Temperature
  • Satellite Maps
  • Weather Map
  • Weather Widgets
  • user-avatar
    Login

    Hourly Weather Dangriga

    Today, 17 January, Wednesday

    Time Temperature Precipitation Wind Pressure Humidity
    00:00 +20°C° 0 mm 5 mps 766 mmHg 64%
    01:00 +20°C° 0 mm 5 mps 766 mmHg 66%
    02:00 +20°C° 0 mm 5 mps 766 mmHg 68%
    03:00 +20°C° 0 mm 5 mps 766 mmHg 69%
    04:00 +19°C° 0 mm 5 mps 766 mmHg 71%
    05:00 +19°C° 0 mm 5 mps 767 mmHg 72%
    06:00 +19°C° 0 mm 5 mps 767 mmHg 73%
    07:00 +20°C° 0 mm 5 mps 767 mmHg 72%
    08:00 +21°C° 0 mm 5 mps 768 mmHg 70%
    09:00 +22°C° 0 mm 5 mps 768 mmHg 69%
    10:00 +23°C° 0 mm 5 mps 768 mmHg 65%
    11:00 +25°C° 0 mm 5 mps 768 mmHg 61%
    12:00 +26°C° 0 mm 5 mps 768 mmHg 58%
    13:00 +26°C° 0 mm 4 mps 767 mmHg 56%
    14:00 +27°C° 0 mm 4 mps 766 mmHg 54%
    15:00 +28°C° 0 mm 4 mps 766 mmHg 51%
    16:00 +26°C° 0 mm 4 mps 766 mmHg 57%
    17:00 +25°C° 0 mm 4 mps 766 mmHg 62%
    18:00 +24°C° 0 mm 3 mps 766 mmHg 67%
    19:00 +23°C° 0.2 mm 4 mps 766 mmHg 68%
    20:00 +22°C° 0.2 mm 4 mps 767 mmHg 69%
    21:00 +22°C° 0.2 mm 5 mps 767 mmHg 70%
    22:00 +22°C° 0.4 mm 5 mps 767 mmHg 72%
    23:00 +22°C° 0.4 mm 6 mps 767 mmHg 74%

    Tomorrow, 18 January, Thursday

    Time Temperature Precipitation Wind Pressure Humidity
    00:00 +21°C° 0.4 mm 6 mps 767 mmHg 76%
    01:00 +21°C° 0.7 mm 6 mps 766 mmHg 78%
    02:00 +20°C° 0.7 mm 6 mps 766 mmHg 81%
    03:00 +20°C° 0.7 mm 7 mps 766 mmHg 83%
    04:00 +20°C° 1.3 mm 7 mps 766 mmHg 86%
    05:00 +19°C° 1.3 mm 6 mps 766 mmHg 89%
    06:00 +19°C° 1.3 mm 6 mps 766 mmHg 92%
    07:00 +19°C° 1.3 mm 6 mps 766 mmHg 94%
    08:00 +19°C° 1.3 mm 6 mps 767 mmHg 95%
    09:00 +19°C° 1.3 mm 6 mps 767 mmHg 96%
    10:00 +19°C° 0.6 mm 5 mps 767 mmHg 96%
    11:00 +19°C° 0.6 mm 5 mps 767 mmHg 96%
    12:00 +19°C° 0.6 mm 5 mps 767 mmHg 96%
    13:00 +19°C° 1 mm 5 mps 766 mmHg 96%
    14:00 +20°C° 1 mm 4 mps 765 mmHg 97%
    15:00 +20°C° 1 mm 4 mps 764 mmHg 97%
    16:00 +20°C° 1.9 mm 5 mps 765 mmHg 97%
    17:00 +20°C° 1.9 mm 5 mps 765 mmHg 98%
    18:00 +20°C° 1.9 mm 5 mps 765 mmHg 98%
    19:00 +20°C° 1.3 mm 6 mps 765 mmHg 98%
    20:00 +20°C° 1.3 mm 6 mps 766 mmHg 99%
    21:00 +20°C° 1.3 mm 7 mps 766 mmHg 99%
    22:00 +20°C° 0.6 mm 6 mps 766 mmHg 99%
    23:00 +21°C° 0.6 mm 6 mps 766 mmHg 98%

    Day after tomorrow, 19 January, Friday

    Time Temperature Precipitation Wind Pressure Humidity
    00:00 +21°C° 0.6 mm 6 mps 766 mmHg 98%
    01:00 +21°C° 0.4 mm 6 mps 765 mmHg 98%
    02:00 +20°C° 0.4 mm 6 mps 765 mmHg 98%
    03:00 +20°C° 0.4 mm 6 mps 765 mmHg 98%
    04:00 +20°C° 0.4 mm 5 mps 765 mmHg 98%
    05:00 +20°C° 0.4 mm 5 mps 765 mmHg 98%
    06:00 +19°C° 0.4 mm 5 mps 765 mmHg 98%
    07:00 +20°C° 0.4 mm 5 mps 765 mmHg 97%
    08:00 +20°C° 0.4 mm 5 mps 766 mmHg 96%
    09:00 +20°C° 0.4 mm 5 mps 767 mmHg 95%
    10:00 +21°C° 0.3 mm 5 mps 766 mmHg 90%
    11:00 +22°C° 0.3 mm 5 mps 766 mmHg 85%
    12:00 +23°C° 0.3 mm 5 mps 766 mmHg 80%
    13:00 +23°C° 0.2 mm 5 mps 765 mmHg 80%
    14:00 +25°C° 0.2 mm 5 mps 764 mmHg 80%
    15:00 +25°C° 0.2 mm 5 mps 763 mmHg 80%
    16:00 +23°C° 0.1 mm 5 mps 763 mmHg 83%
    17:00 +22°C° 0.1 mm 5 mps 763 mmHg 85%
    18:00 +22°C° 0.1 mm 5 mps 763 mmHg 87%
    19:00 +21°C° 0 mm 4 mps 764 mmHg 88%
    20:00 +21°C° 0 mm 4 mps 764 mmHg 89%
    21:00 +21°C° 0 mm 4 mps 765 mmHg 91%
    22:00 +20°C° 0 mm 4 mps 764 mmHg 92%
    23:00 +20°C° 0 mm 3 mps 764 mmHg 93%

    20 January, Saturday

    Time Temperature Precipitation Wind Pressure Humidity
    00:00 +20°C° 0 mm 3 mps 764 mmHg 94%
    01:00 +20°C° 0 mm 3 mps 763 mmHg 94%
    02:00 +20°C° 0 mm 3 mps 763 mmHg 95%
    03:00 +20°C° 0 mm 3 mps 762 mmHg 96%
    04:00 +20°C° 0 mm 3 mps 762 mmHg 96%
    05:00 +20°C° 0 mm 3 mps 762 mmHg 96%
    06:00 +20°C° 0 mm 3 mps 763 mmHg 96%
    07:00 +21°C° 0 mm 3 mps 763 mmHg 90%
    08:00 +24°C° 0 mm 3 mps 763 mmHg 83%
    09:00 +25°C° 0 mm 3 mps 764 mmHg 77%
    10:00 +27°C° 0 mm 3 mps 763 mmHg 70%
    11:00 +28°C° 0 mm 3 mps 763 mmHg 64%
    12:00 +29°C° 0 mm 4 mps 763 mmHg 58%
    13:00 +29°C° 0 mm 4 mps 762 mmHg 58%
    14:00 +29°C° 0 mm 4 mps 761 mmHg 58%
    15:00 +29°C° 0 mm 4 mps 760 mmHg 59%
    16:00 +28°C° 0.1 mm 4 mps 760 mmHg 66%
    17:00 +27°C° 0.1 mm 5 mps 761 mmHg 73%
    18:00 +25°C° 0.1 mm 5 mps 761 mmHg 80%
    19:00 +25°C° 0.4 mm 4 mps 761 mmHg 85%
    20:00 +23°C° 0.4 mm 4 mps 762 mmHg 89%
    21:00 +23°C° 0.4 mm 4 mps 762 mmHg 94%
    22:00 +23°C° 0.5 mm 4 mps 762 mmHg 95%
    23:00 +24°C° 0.5 mm 3 mps 762 mmHg 96%

    21 January, Sunday

    Time Temperature Precipitation Wind Pressure Humidity
    00:00 +24°C° 0.5 mm 3 mps 761 mmHg 97%
    01:00 +24°C° 0.6 mm 2 mps 761 mmHg 97%
    02:00 +24°C° 0.6 mm 2 mps 761 mmHg 97%
    03:00 +24°C° 0.6 mm 2 mps 760 mmHg 98%
    04:00 +24°C° 0.4 mm 2 mps 760 mmHg 98%
    05:00 +24°C° 0.4 mm 2 mps 760 mmHg 98%
    06:00 +24°C° 0.4 mm 2 mps 761 mmHg 98%
    07:00 +25°C° 0.3 mm 1 mps 761 mmHg 95%
    08:00 +26°C° 0.3 mm 1 mps 761 mmHg 91%
    09:00 +27°C° 0.3 mm 1 mps 762 mmHg 87%
    10:00 +28°C° 0.3 mm 2 mps 761 mmHg 84%
    11:00 +28°C° 0.3 mm 2 mps 761 mmHg 80%
    12:00 +29°C° 0.3 mm 2 mps 760 mmHg 76%
    13:00 +30°C° 0.1 mm 2 mps 759 mmHg 71%
    14:00 +30°C° 0.1 mm 2 mps 759 mmHg 67%
    15:00 +31°C° 0.1 mm 2 mps 758 mmHg 62%
    16:00 +29°C° 0 mm 3 mps 758 mmHg 70%
    17:00 +27°C° 0 mm 3 mps 758 mmHg 79%
    18:00 +26°C° 0 mm 3 mps 758 mmHg 87%
    19:00 +25°C° 0 mm 3 mps 759 mmHg 91%
    20:00 +25°C° 0 mm 3 mps 759 mmHg 94%
    21:00 +25°C° 0 mm 3 mps 759 mmHg 97%
    22:00 +25°C° 0.1 mm 3 mps 759 mmHg 97%
    23:00 +25°C° 0.1 mm 3 mps 759 mmHg 98%

    22 January, Monday

    Time Temperature Precipitation Wind Pressure Humidity
    00:00 +25°C° 0.1 mm 4 mps 759 mmHg 98%
    01:00 +25°C° 0.7 mm 4 mps 759 mmHg 98%
    02:00 +25°C° 0.7 mm 4 mps 758 mmHg 98%
    03:00 +23°C° 0.7 mm 4 mps 758 mmHg 98%
    04:00 +24°C° 0.9 mm 3 mps 758 mmHg 98%
    05:00 +24°C° 0.9 mm 3 mps 759 mmHg 98%
    06:00 +24°C° 0.9 mm 3 mps 759 mmHg 98%
    07:00 +26°C° 0.4 mm 3 mps 760 mmHg 95%
    08:00 +27°C° 0.4 mm 3 mps 760 mmHg 91%
    09:00 +28°C° 0.4 mm 3 mps 761 mmHg 87%
    10:00 +29°C° 0.1 mm 3 mps 761 mmHg 80%
    11:00 +30°C° 0.1 mm 3 mps 760 mmHg 73%
    12:00 +31°C° 0.1 mm 3 mps 760 mmHg 66%
    13:00 +31°C° 0.1 mm 3 mps 759 mmHg 65%
    14:00 +31°C° 0.1 mm 3 mps 759 mmHg 65%
    15:00 +31°C° 0.1 mm 3 mps 758 mmHg 64%
    16:00 +30°C° 0 mm 3 mps 758 mmHg 72%
    17:00 +28°C° 0 mm 3 mps 759 mmHg 81%
    18:00 +26°C° 0 mm 3 mps 759 mmHg 89%
    19:00 +26°C° 0.1 mm 3 mps 760 mmHg 92%
    20:00 +25°C° 0.1 mm 3 mps 760 mmHg 95%
    21:00 +25°C° 0.1 mm 3 mps 761 mmHg 97%
    22:00 +25°C° 0.1 mm 3 mps 761 mmHg 98%
    23:00 +25°C° 0.1 mm 3 mps 761 mmHg 98%
    Show more